Weather in Westerland

Germany     54°54′17″N   8°18′38″E
temp.,
°C
wind,
m/s
gust,
m/s
humid.,
%
clouds,
%
prec.,
mm/h
press.,
hPa
HPBL,
m
26 february, fri
fri2601:00+4w8118767 0.0 1027150
04:00+4w8128957 0.0 1027171
07:00+4w8119128 0.0 1028157
10:00+4wnw710910 0.0 1029142
13:00+4wnw811913 0.0 1030170
16:00+4wnw813900 0.0 1030223
19:00+4wnw914900 0.0 1031220
22:00+4nw813910 0.0 1032239
27 february, sat
sat2701:00+4nw710940 0.0 1034168
04:00+4wnw79950 0.0 1034137
07:00+4nw56937 0.0 103563
10:00+4wnw55890 0.0 103645
13:00+5w45860 0.0 103736
16:00+5wnw66890 0.0 103666
19:00+5wnw669030 0.0 103566
22:00+5wnw5692100 0.0 103666
28 february, sun
sun2801:00+4nw6792100 0.0 103681
04:00+5nw6790100 0.0 103573
07:00+5nw569399 0.0 103554
10:00+5nw558925 0.0 103544
13:00+5nw458813 0.0 103637
16:00+5wnw55880 0.0 103544
19:00+4wnw55910 0.0 103548
22:00+4wnw459520 0.0 103539
1 march, mon
mon101:00+4wnw349260 0.0 103529
04:00+4w2393100 0.0 103522
07:00+4w3392100 0.0 103522
10:00+4w239295 0.0 103522
13:00+4sw349058 0.0 103523
16:00+4wsw23900 0.0 103422
19:00+4ssw11900 0.0 103422
22:00+4se12850 0.0 103422
2 march, tue
tue201:00+5se34830 0.0 103322
04:00+5sse55830 0.0 103235
07:00+4sse56840 0.0 103261
10:00+4s56820 0.0 103263
13:00+4ssw55810 0.0 103249
16:00+5sw45830 0.0 103139
19:00+5wsw55830 0.0 103137
22:00+5w448133 0.0 103123